Time,TemperatureF,DewpointF,PressureIn,WindDirection,WindDirectionDegrees,WindSpeedMPH,WindSpeedGustMPH,Humidity,HourlyPrecipIn,Conditions,Clouds,dailyrainin,SoftwareType,DateUTC
2016-02-09 00:06:00,38.7,17.6,30.06,WSW,248,0.0,0.0,42,0.00,,SCT300,0.00,VWS V15.00,2016-02-09 06:06:00,
2016-02-09 00:11:00,38.3,17.2,30.09,WSW,248,0.0,0.0,42,0.00,,SCT300,0.00,VWS V15.00,2016-02-09 06:11:00,
2016-02-09 00:16:00,38.1,17.6,30.09,WSW,248,0.0,0.0,43,0.00,,SCT300,0.00,VWS V15.00,2016-02-09 06:16:00,
2016-02-09 00:28:00,37.8,17.8,30.12,WSW,248,0.0,0.0,44,0.00,,SCT300,0.00,VWS V15.00,2016-02-09 06:28:00,
2016-02-09 00:38:00,37.6,17.7,30.12,WSW,248,0.0,0.0,44,0.00,,SCT300,0.00,VWS V15.00,2016-02-09 06:38:00,
2016-02-09 00:43:00,37.6,17.7,30.09,WSW,248,0.0,0.0,44,0.00,,SCT300,0.00,VWS V15.00,2016-02-09 06:43:00,
2016-02-09 00:48:00,37.8,17.8,30.09,WSW,248,0.0,0.0,44,0.00,,SCT300,0.00,VWS V15.00,2016-02-09 06:48:00,
2016-02-09 00:53:00,37.9,18.0,30.09,WSW,248,0.0,0.0,44,0.00,,SCT300,0.00,VWS V15.00,2016-02-09 06:53:00,
2016-02-09 01:03:00,37.6,18.2,30.09,WSW,248,0.0,0.0,45,0.00,,SCT300,0.00,VWS V15.00,2016-02-09 07:03:00,
2016-02-09 01:08:00,37.6,18.2,30.09,WSW,248,0.0,0.0,45,0.00,,SCT300,0.00,VWS V15.00,2016-02-09 07:08:00,
2016-02-09 01:14:00,37.4,18.0,30.09,WSW,248,0.0,0.0,45,0.00,,SCT300,0.00,VWS V15.00,2016-02-09 07:14:00,
2016-02-09 01:19:00,37.4,18.0,30.09,WSW,248,0.0,0.0,45,0.00,,SCT300,0.00,VWS V15.00,2016-02-09 07:19:00,
2016-02-09 01:24:00,37.4,18.0,30.09,WSW,248,0.0,0.0,45,0.00,,SCT300,0.00,VWS V15.00,2016-02-09 07:24:00,
2016-02-09 01:29:00,37.2,18.4,30.09,WSW,248,0.0,0.0,46,0.00,,SCT300,0.00,VWS V15.00,2016-02-09 07:29:00,
2016-02-09 01:34:00,37.0,18.7,30.09,WSW,248,0.0,0.0,47,0.00,,SCT300,0.00,VWS V15.00,2016-02-09 07:34:00,
2016-02-09 01:39:00,36.9,18.5,30.09,WSW,248,0.0,0.0,47,0.00,,SCT300,0.00,VWS V15.00,2016-02-09 07:39:00,
2016-02-09 01:44:00,36.7,18.4,30.09,WSW,248,0.0,0.0,47,0.00,,SCT300,0.00,VWS V15.00,2016-02-09 07:44:00,
2016-02-09 01:49:00,36.5,18.7,30.09,WSW,248,0.0,0.0,48,0.00,,SCT300,0.00,VWS V15.00,2016-02-09 07:49:00,
2016-02-09 01:54:00,36.1,18.4,30.09,WSW,248,0.0,0.0,48,0.00,,SCT300,0.00,VWS V15.00,2016-02-09 07:54:00,
2016-02-09 01:59:00,36.0,18.2,30.09,WSW,248,0.0,0.0,48,0.00,,SCT300,0.00,VWS V15.00,2016-02-09 07:59:00,
2016-02-09 02:04:00,35.8,18.0,30.09,WSW,248,0.0,0.0,48,0.00,,SCT300,0.00,VWS V15.00,2016-02-09 08:04:00,
2016-02-09 02:09:00,35.6,17.9,30.09,WSW,248,0.0,0.0,48,0.00,,SCT300,0.00,VWS V15.00,2016-02-09 08:09:00,
2016-02-09 02:14:00,35.4,17.7,30.09,WSW,248,0.0,0.0,48,0.00,,SCT300,0.00,VWS V15.00,2016-02-09 08:14:00,
2016-02-09 02:19:00,35.1,17.8,30.09,WSW,248,0.0,0.0,49,0.00,,SCT300,0.00,VWS V15.00,2016-02-09 08:19:00,
2016-02-09 02:24:00,34.7,17.5,30.09,WSW,248,0.0,0.0,49,0.00,,SCT300,0.00,VWS V15.00,2016-02-09 08:24:00,
2016-02-09 02:29:00,34.7,18.0,30.09,WSW,248,0.0,0.0,50,0.00,,SCT300,0.00,VWS V15.00,2016-02-09 08:29:00,
2016-02-09 02:35:00,34.5,17.8,30.09,WSW,248,0.0,0.0,50,0.00,,SCT300,0.00,VWS V15.00,2016-02-09 08:35:00,
2016-02-09 02:40:00,34.3,17.6,30.09,WSW,248,0.0,0.0,50,0.00,,SCT300,0.00,VWS V15.00,2016-02-09 08:40:00,
2016-02-09 02:45:00,34.3,17.6,30.09,WSW,248,0.0,0.0,50,0.00,,SCT300,0.00,VWS V15.00,2016-02-09 08:45:00,
2016-02-09 02:55:00,34.2,17.9,30.09,WSW,248,0.0,0.0,51,0.00,,SCT300,0.00,VWS V15.00,2016-02-09 08:55:00,
2016-02-09 03:00:00,34.2,17.9,30.09,WSW,248,0.0,0.0,51,0.00,,SCT300,0.00,VWS V15.00,2016-02-09 09:00:00,
2016-02-09 03:07:00,34.2,17.9,30.09,WSW,248,0.0,0.0,51,0.00,,SCT300,0.00,VWS V15.00,2016-02-09 09:07:00,
2016-02-09 03:12:00,34.0,18.2,30.09,WSW,248,0.0,0.0,52,0.00,,SCT300,0.00,VWS V15.00,2016-02-09 09:12:00,
2016-02-09 03:17:00,34.0,18.2,30.09,WSW,248,0.0,0.0,52,0.00,,SCT300,0.00,VWS V15.00,2016-02-09 09:17:00,
2016-02-09 03:22:00,34.0,18.2,30.09,WSW,248,0.0,0.0,52,0.00,,SCT300,0.00,VWS V15.00,2016-02-09 09:22:00,
2016-02-09 03:27:00,33.8,18.0,30.12,WSW,248,0.0,0.0,52,0.00,,SCT300,0.00,VWS V15.00,2016-02-09 09:27:00,
2016-02-09 03:32:00,33.8,18.0,30.12,WSW,248,0.0,0.0,52,0.00,,SCT300,0.00,VWS V15.00,2016-02-09 09:32:00,
2016-02-09 03:37:00,33.8,18.0,30.12,WSW,248,0.0,0.0,52,0.00,,SCT300,0.00,VWS V15.00,2016-02-09 09:37:00,
2016-02-09 03:42:00,33.8,18.0,30.09,WSW,248,0.0,0.0,52,0.00,,SCT300,0.00,VWS V15.00,2016-02-09 09:42:00,
2016-02-09 03:47:00,33.8,18.5,30.09,WSW,248,0.0,0.0,53,0.00,,SCT300,0.00,VWS V15.00,2016-02-09 09:47:00,
2016-02-09 03:53:00,33.8,18.0,30.09,WSW,248,0.0,0.0,52,0.00,,SCT300,0.00,VWS V15.00,2016-02-09 09:53:00,
2016-02-09 03:58:00,33.8,18.0,30.09,WSW,248,0.0,0.0,52,0.00,,SCT300,0.00,VWS V15.00,2016-02-09 09:58:00,
2016-02-09 04:03:00,33.6,18.3,30.09,WSW,248,0.0,0.0,53,0.00,,SCT300,0.00,VWS V15.00,2016-02-09 10:03:00,
2016-02-09 04:08:00,33.6,18.3,30.09,WSW,248,0.0,0.0,53,0.00,,SCT300,0.00,VWS V15.00,2016-02-09 10:08:00,
2016-02-09 04:13:00,33.4,18.2,30.09,WSW,248,0.0,0.0,53,0.00,,SCT300,0.00,VWS V15.00,2016-02-09 10:13:00,
2016-02-09 04:18:00,33.4,18.2,30.09,WSW,248,0.0,0.0,53,0.00,,SCT300,0.00,VWS V15.00,2016-02-09 10:18:00,
2016-02-09 04:23:00,33.3,18.0,30.09,WSW,248,0.0,0.0,53,0.00,,SCT300,0.00,VWS V15.00,2016-02-09 10:23:00,
2016-02-09 04:28:00,33.1,17.8,30.09,WSW,248,0.0,0.0,53,0.00,,SCT300,0.00,VWS V15.00,2016-02-09 10:28:00,
2016-02-09 04:33:00,33.1,18.3,30.09,WSW,248,0.0,0.0,54,0.00,,SCT300,0.00,VWS V15.00,2016-02-09 10:33:00,
2016-02-09 04:38:00,32.9,18.1,30.09,WSW,248,0.0,0.0,54,0.00,,SCT300,0.00,VWS V15.00,2016-02-09 10:38:00,